Liberia, Costa Rica

12:37 PM CST on February 06, 2016 (GMT -0600)
Liberia

Weather History for 78774 - March, 2013

Change the Weather History Date:

Friday, March 15, 2013

  Actual Average Record
Temperature  
Mean Temperature 82 °F -  
Max Temperature 89 °F 92 °F - ()
Min Temperature 75 °F 76 °F - ()
Cooling Degree Days 17    
Growing Degree Days 32 (Base 50)    
Moisture  
Dew Point 62 °F    
Average Humidity 45    
Maximum Humidity 57    
Minimum Humidity 32    
Precipitation  
Precipitation 0.00 in - - ()
Sea Level Pressure  
Sea Level Pressure 29.81 in    
Wind  
Wind Speed 19 mph ()    
Max Wind Speed 30 mph    
Max Gust Speed 45 mph    
Visibility 9.1 miles    
Events      
T = Trace of Precipitation, MM = Missing Value Source: Averaged Metar Reports

Daily Weather History Graph

Daily Weather History Graph

Search for Another Location

Airport or City:

Trip Planner

Search our weather history database for the weather conditions in past years. The results will help you decide how hot, cold, wet, or windy it might be!

Date:

Astronomy

Mar. 15, 2013 Rise Set
Actual Time 5:49 AM CST 5:52 PM CST
Civil Twilight 5:28 AM CST 6:13 PM CST
Nautical Twilight 5:03 AM CST 6:38 PM CST
Astronomical Twilight 4:39 AM CST 7:02 PM CST
Moon 8:26 AM CST (3/15) 9:14 PM CST (3/15)
Length of Visible Light 12h 45m
Length of Day
12h 03m
Waxing Crescent, 16% of the Moon is Illuminated
Mar 15
Waxing Crescent
Mar 19
First Quarter
Mar 27
Full
Apr 2
Last Quarter
Apr 10
New

Hourly Weather History & Observations

Time (CST) Temp. Heat Index Dew Point Humidity Pressure Visibility Wind Dir Wind Speed Gust Speed Precip Events Conditions
6:00 AM 78 °F - 63 °F 50% 29.83 in 12 mi ENE 17.3 mph - -   Clear
6:00 AM 78.8 °F - 62.6 °F 57% 29.81 in - ENE 17.3 mph - N/A   Clear
7:00 AM 80.6 °F 81.8 °F 62.6 °F 54% 29.84 in - ENE 19.6 mph - N/A   Clear
8:00 AM 84.2 °F 85.0 °F 62.6 °F 48% 29.87 in - NE 13.8 mph - N/A   Clear
9:00 AM 86 °F - 63 °F 36% 29.87 in 12 mi ENE 21.9 mph - -   Scattered Clouds
9:00 AM 86.0 °F 86.6 °F 62.6 °F 45% 29.86 in 6.2 mi ENE 21.9 mph - N/A   Mostly Cloudy
10:00 AM 86.0 °F 86.6 °F 62.6 °F 45% 29.86 in 6.2 mi East 24.2 mph 35.7 mph N/A   Mostly Cloudy
11:00 AM 86.0 °F 86.1 °F 60.8 °F 43% 29.84 in 6.2 mi ENE 28.8 mph 40.3 mph N/A   Mostly Cloudy
12:00 PM 87 °F - 62 °F 33% 29.83 in 12 mi East 25.3 mph - -   Scattered Clouds
12:00 PM 87.8 °F 88.5 °F 62.6 °F 43% 29.82 in 6.2 mi East 25.3 mph 36.8 mph N/A   Mostly Cloudy
1:00 PM 89.6 °F 89.5 °F 60.8 °F 38% 29.79 in 6.2 mi ENE 26.5 mph 38.0 mph N/A   Mostly Cloudy
2:00 PM 87.8 °F 87.6 °F 60.8 °F 40% 29.75 in - ENE 29.9 mph 44.9 mph N/A   Clear
3:00 PM 88 °F - 62 °F 32% 29.75 in 12 mi ENE 25.3 mph - -   Clear
3:00 PM 87.8 °F 88.5 °F 62.6 °F 43% 29.74 in - ENE 25.3 mph 36.8 mph N/A   Clear
4:00 PM 87.8 °F 87.6 °F 60.8 °F 40% 29.73 in - ENE 26.5 mph - N/A   Clear
5:00 PM 86.0 °F 85.4 °F 59.0 °F 40% 29.75 in - ENE 23.0 mph - N/A   Clear
6:00 PM 82 °F - 62 °F 40% 29.79 in 12 mi ENE 20.7 mph - -  
6:00 PM 82.4 °F 83.4 °F 62.6 °F 51% 29.78 in - ENE 20.7 mph - N/A   Clear
7:00 PM 80.6 °F 81.5 °F 60.8 °F 51% 29.80 in - East 20.7 mph - N/A   Clear
8:00 PM 80.6 °F 81.5 °F 60.8 °F 51% 29.81 in - East 21.9 mph 33.4 mph N/A   Clear
9:00 PM 78.8 °F - 59.0 °F 51% 29.83 in - East 20.7 mph 32.2 mph N/A   Clear
10:00 PM 78.8 °F - 60.8 °F 54% 29.84 in - East 21.9 mph - N/A   Clear